Time,TemperatureF,DewpointF,PressureIn,WindDirection,WindDirectionDegrees,WindSpeedMPH,WindSpeedGustMPH,Humidity,HourlyPrecipIn,Conditions,Clouds,dailyrainin,SoftwareType,DateUTC
2016-02-09 00:03:00,73.2,69.1,30.15,SW,217,5.0,12.0,87,0.00,,,0.00,VWS V15.00,2016-02-09 06:03:00,
2016-02-09 00:08:00,73.3,68.9,30.15,ESE,120,5.0,12.0,86,0.00,,,0.00,VWS V15.00,2016-02-09 06:08:00,
2016-02-09 00:13:00,73.3,68.5,30.15,West,276,6.0,13.0,85,0.00,,,0.00,VWS V15.00,2016-02-09 06:13:00,
2016-02-09 00:18:00,73.3,68.5,30.15,WSW,250,3.0,13.0,85,0.00,,,0.00,VWS V15.00,2016-02-09 06:18:00,
2016-02-09 00:23:00,73.1,68.3,30.15,South,180,5.0,13.0,85,0.00,,,0.00,VWS V15.00,2016-02-09 06:23:00,
2016-02-09 00:28:00,73.2,68.8,30.15,South,186,1.0,13.0,86,0.00,,,0.00,VWS V15.00,2016-02-09 06:28:00,
2016-02-09 00:38:00,73.2,68.8,30.15,South,191,7.0,11.0,86,0.00,,,0.00,VWS V15.00,2016-02-09 06:38:00,
2016-02-09 00:43:00,73.1,68.7,30.15,WSW,246,4.0,11.0,86,0.00,,,0.00,VWS V15.00,2016-02-09 06:43:00,
2016-02-09 00:48:00,73.0,68.9,30.15,West,266,1.0,11.0,87,0.00,,,0.00,VWS V15.00,2016-02-09 06:48:00,
2016-02-09 00:53:00,73.2,68.4,30.15,SSE,150,8.0,13.0,85,0.00,,,0.00,VWS V15.00,2016-02-09 06:53:00,
2016-02-09 00:58:00,73.3,68.5,30.15,WSW,252,8.0,13.0,85,0.00,,,0.00,VWS V15.00,2016-02-09 06:58:00,
2016-02-09 01:03:00,73.2,68.4,30.14,WSW,249,3.0,13.0,85,0.00,,,0.00,VWS V15.00,2016-02-09 07:03:00,
2016-02-09 01:08:00,72.9,68.1,30.14,SE,139,3.0,13.0,85,0.00,,,0.00,VWS V15.00,2016-02-09 07:08:00,
2016-02-09 01:13:00,72.8,68.4,30.14,WSW,248,4.0,13.0,86,0.00,,,0.00,VWS V15.00,2016-02-09 07:13:00,
2016-02-09 01:18:00,72.1,68.3,30.14,West,260,7.0,13.0,88,0.00,,,0.00,VWS V15.00,2016-02-09 07:18:00,
2016-02-09 01:28:00,72.1,68.3,30.14,West,260,7.0,13.0,88,0.00,,,0.00,VWS V15.00,2016-02-09 07:28:00,
2016-02-09 01:33:00,72.1,68.3,30.14,West,260,7.0,7.0,88,0.00,,,0.00,VWS V15.00,2016-02-09 07:33:00,
2016-02-09 01:38:00,72.1,68.3,30.13,West,260,7.0,7.0,88,0.00,,,0.00,VWS V15.00,2016-02-09 07:38:00,
2016-02-09 01:53:00,72.1,68.3,30.13,West,260,7.0,7.0,88,0.00,,,0.00,VWS V15.00,2016-02-09 07:53:00,
2016-02-09 02:08:00,72.1,68.3,30.13,West,260,7.0,7.0,88,0.00,,,0.00,VWS V15.00,2016-02-09 08:08:00,
2016-02-09 02:13:00,72.1,68.3,30.13,West,260,7.0,7.0,88,0.00,,,0.00,VWS V15.00,2016-02-09 08:13:00,
2016-02-09 02:18:00,72.1,68.3,30.13,West,260,7.0,7.0,88,0.00,,,0.00,VWS V15.00,2016-02-09 08:18:00,
2016-02-09 02:23:00,72.1,68.3,30.13,West,260,7.0,7.0,88,0.00,,,0.00,VWS V15.00,2016-02-09 08:23:00,
2016-02-09 02:28:00,72.1,68.3,30.13,West,260,7.0,7.0,88,0.00,,,0.00,VWS V15.00,2016-02-09 08:28:00,
2016-02-09 02:33:00,72.1,68.3,30.13,West,260,7.0,7.0,88,0.00,,,0.00,VWS V15.00,2016-02-09 08:33:00,
2016-02-09 02:38:00,72.1,68.3,30.12,West,260,7.0,7.0,88,0.00,,,0.00,VWS V15.00,2016-02-09 08:38:00,
2016-02-09 02:43:00,72.1,68.3,30.12,West,260,7.0,7.0,88,0.00,,,0.00,VWS V15.00,2016-02-09 08:43:00,
2016-02-09 02:48:00,72.1,68.3,30.12,West,260,7.0,7.0,88,0.00,,,0.00,VWS V15.00,2016-02-09 08:48:00,
2016-02-09 02:53:00,72.1,68.3,30.12,West,260,7.0,7.0,88,0.00,,,0.00,VWS V15.00,2016-02-09 08:53:00,
2016-02-09 02:58:00,72.1,68.3,30.12,West,260,7.0,7.0,88,0.00,,,0.00,VWS V15.00,2016-02-09 08:58:00,
2016-02-09 03:03:00,72.1,68.3,30.12,West,260,7.0,7.0,88,0.00,,,0.00,VWS V15.00,2016-02-09 09:03:00,
2016-02-09 03:08:00,72.1,68.3,30.12,West,260,7.0,7.0,88,0.00,,,0.00,VWS V15.00,2016-02-09 09:08:00,
2016-02-09 03:13:00,72.1,68.3,30.12,West,260,7.0,7.0,88,0.00,,,0.00,VWS V15.00,2016-02-09 09:13:00,
2016-02-09 03:18:00,72.1,68.3,30.12,West,260,7.0,7.0,88,0.00,,,0.00,VWS V15.00,2016-02-09 09:18:00,
2016-02-09 03:23:00,72.1,68.3,30.12,West,260,7.0,7.0,88,0.00,,,0.00,VWS V15.00,2016-02-09 09:23:00,
2016-02-09 03:28:00,72.1,68.3,30.12,West,260,7.0,7.0,88,0.00,,,0.00,VWS V15.00,2016-02-09 09:28:00,
2016-02-09 03:38:00,72.1,68.3,30.12,West,260,7.0,7.0,88,0.00,,,0.00,VWS V15.00,2016-02-09 09:38:00,
2016-02-09 03:43:00,72.1,68.3,30.13,West,260,7.0,7.0,88,0.00,,,0.00,VWS V15.00,2016-02-09 09:43:00,
2016-02-09 03:48:00,72.1,68.3,30.13,West,260,7.0,7.0,88,0.00,,,0.00,VWS V15.00,2016-02-09 09:48:00,
2016-02-09 03:53:00,72.1,68.3,30.12,West,260,7.0,7.0,88,0.00,,,0.00,VWS V15.00,2016-02-09 09:53:00,
2016-02-09 03:58:00,72.1,68.3,30.13,West,260,7.0,7.0,88,0.00,,,0.00,VWS V15.00,2016-02-09 09:58:00,
2016-02-09 04:03:00,72.1,68.3,30.13,West,260,7.0,7.0,88,0.00,,,0.00,VWS V15.00,2016-02-09 10:03:00,
2016-02-09 04:13:00,72.1,68.3,30.13,West,260,7.0,7.0,88,0.00,,,0.00,VWS V15.00,2016-02-09 10:13:00,
2016-02-09 04:18:00,72.1,68.3,30.13,West,260,7.0,7.0,88,0.00,,,0.00,VWS V15.00,2016-02-09 10:18:00,
2016-02-09 04:23:00,72.1,68.3,30.13,West,260,7.0,7.0,88,0.00,,,0.00,VWS V15.00,2016-02-09 10:23:00,
2016-02-09 04:33:00,72.1,68.3,30.13,West,260,7.0,7.0,88,0.00,,,0.00,VWS V15.00,2016-02-09 10:33:00,
2016-02-09 04:43:00,72.1,68.3,30.14,West,260,7.0,7.0,88,0.00,,,0.00,VWS V15.00,2016-02-09 10:43:00,
2016-02-09 04:48:00,72.1,68.3,30.14,West,260,7.0,7.0,88,0.00,,,0.00,VWS V15.00,2016-02-09 10:48:00,
2016-02-09 04:58:00,72.1,68.3,30.15,West,260,7.0,7.0,88,0.00,,,0.00,VWS V15.00,2016-02-09 10:58:00,
2016-02-09 05:03:00,72.1,68.3,30.15,West,260,7.0,7.0,88,0.00,,,0.00,VWS V15.00,2016-02-09 11:03:00,
2016-02-09 05:08:00,72.1,68.3,30.15,West,260,7.0,7.0,88,0.00,,,0.00,VWS V15.00,2016-02-09 11:08:00,
2016-02-09 05:13:00,72.1,68.3,30.15,West,260,7.0,7.0,88,0.00,,,0.00,VWS V15.00,2016-02-09 11:13:00,
2016-02-09 05:18:00,72.1,68.3,30.16,West,260,7.0,7.0,88,0.00,,,0.00,VWS V15.00,2016-02-09 11:18:00,
2016-02-09 05:23:00,72.1,68.3,30.16,West,260,7.0,7.0,88,0.00,,,0.00,VWS V15.00,2016-02-09 11:23:00,
2016-02-09 05:28:00,72.1,68.3,30.16,West,260,7.0,7.0,88,0.00,,,0.00,VWS V15.00,2016-02-09 11:28:00,
2016-02-09 05:33:00,72.1,68.3,30.16,West,260,7.0,7.0,88,0.00,,,0.00,VWS V15.00,2016-02-09 11:33:00,
2016-02-09 05:38:00,72.1,68.3,30.17,West,260,7.0,7.0,88,0.00,,,0.00,VWS V15.00,2016-02-09 11:38:00,
2016-02-09 05:48:00,72.1,68.3,30.17,West,260,7.0,7.0,88,0.00,,,0.00,VWS V15.00,2016-02-09 11:48:00,
2016-02-09 05:52:00,72.1,68.3,30.17,West,260,7.0,7.0,88,0.00,,,0.00,VWS V15.00,2016-02-09 11:52:00,
2016-02-09 05:57:00,72.1,68.3,30.18,West,260,7.0,7.0,88,0.00,,,0.00,VWS V15.00,2016-02-09 11:57:00,
2016-02-09 06:02:00,72.1,68.3,30.18,West,260,7.0,7.0,88,0.00,,,0.00,VWS V15.00,2016-02-09 12:02:00,
2016-02-09 06:07:00,72.1,68.3,30.18,West,260,7.0,7.0,88,0.00,,,0.00,VWS V15.00,2016-02-09 12:07:00,
2016-02-09 06:12:00,72.1,68.3,30.18,West,260,7.0,7.0,88,0.00,,,0.00,VWS V15.00,2016-02-09 12:12:00,
2016-02-09 06:22:00,72.1,68.3,30.18,West,260,7.0,7.0,88,0.00,,,0.00,VWS V15.00,2016-02-09 12:22:00,
2016-02-09 06:27:00,72.1,68.3,30.18,West,260,7.0,7.0,88,0.00,,,0.00,VWS V15.00,2016-02-09 12:27:00,
2016-02-09 06:32:00,72.1,68.3,30.18,West,260,7.0,7.0,88,0.00,,,0.00,VWS V15.00,2016-02-09 12:32:00,
2016-02-09 06:37:00,72.1,68.3,30.18,West,260,7.0,7.0,88,0.00,,,0.00,VWS V15.00,2016-02-09 12:37:00,
2016-02-09 06:42:00,72.1,68.3,30.18,West,260,7.0,7.0,88,0.00,,,0.00,VWS V15.00,2016-02-09 12:42:00,
2016-02-09 06:47:00,72.1,68.3,30.19,West,260,7.0,7.0,88,0.00,,,0.00,VWS V15.00,2016-02-09 12:47:00,
2016-02-09 06:52:00,72.1,68.3,30.19,West,260,7.0,7.0,88,0.00,,,0.00,VWS V15.00,2016-02-09 12:52:00,
2016-02-09 06:57:00,72.1,68.3,30.19,West,260,7.0,7.0,88,0.00,,,0.00,VWS V15.00,2016-02-09 12:57:00,
2016-02-09 07:02:00,72.1,68.3,30.20,West,260,7.0,7.0,88,0.00,,,0.00,VWS V15.00,2016-02-09 13:02:00,
2016-02-09 07:07:00,72.1,68.3,30.20,West,260,7.0,7.0,88,0.00,,,0.00,VWS V15.00,2016-02-09 13:07:00,
2016-02-09 07:17:00,72.7,65.8,30.20,West,263,3.0,12.0,79,0.00,,,0.00,VWS V15.00,2016-02-09 13:17:00,
2016-02-09 07:22:00,72.7,65.8,30.20,WNW,288,3.0,12.0,79,0.00,,,0.00,VWS V15.00,2016-02-09 13:22:00,
2016-02-09 07:27:00,72.7,65.4,30.21,WNW,293,13.0,16.0,78,0.00,,,0.00,VWS V15.00,2016-02-09 13:27:00,
2016-02-09 07:32:00,72.8,65.2,30.21,West,261,8.0,15.0,77,0.00,,,0.00,VWS V15.00,2016-02-09 13:32:00,
2016-02-09 07:37:00,72.7,65.4,30.21,West,267,5.0,15.0,78,0.00,,,0.00,VWS V15.00,2016-02-09 13:37:00,
2016-02-09 07:42:00,72.7,65.4,30.21,WSW,248,1.0,15.0,78,0.00,,,0.00,VWS V15.00,2016-02-09 13:42:00,
2016-02-09 07:47:00,72.7,65.8,30.21,WNW,298,4.0,15.0,79,0.00,,,0.00,VWS V15.00,2016-02-09 13:47:00,
2016-02-09 08:02:00,72.9,66.4,30.21,WSW,256,2.0,5.0,80,0.00,,,0.00,VWS V15.00,2016-02-09 14:02:00,
2016-02-09 08:07:00,73.0,66.1,30.22,NW,305,4.0,11.0,79,0.00,,,0.00,VWS V15.00,2016-02-09 14:07:00,
2016-02-09 08:12:00,73.0,66.5,30.22,NW,326,3.0,11.0,80,0.00,,,0.00,VWS V15.00,2016-02-09 14:12:00,
2016-02-09 08:17:00,73.0,66.1,30.22,NW,307,2.0,15.0,79,0.00,,,0.00,VWS V15.00,2016-02-09 14:17:00,